Location: *
(51.4660°N, 0.3360°W)
Time: 15:48:41
(UTC+00:00)

Cosmos 1943 - Pass Details

Date: 19 September 2019
Orbit: 833 x 851 km, 71.0° (Epoch: 20 October)

Event Time Altitude Azimuth Distance (km) Brightness Sun altitude
Rises 20:58:09 0° 330° (NNW) 3,428 7.5 -25.3°
Reaches altitude 10° 21:00:41 10° 336° (NNW) 2,488 6.5 -25.6°
Maximum altitude 21:06:17 53° 53° (NE) 1,035 3.5 -26.3°
Enters shadow 21:06:28 53° 60° (ENE) 1,038 3.5 -26.3°
